Temp
2 1 1 1 1 1 1 1 1 1 0 -0 -0 -1 -1 -1 -1 -1 -1 -2 -2 -3 -3 -4 -4 -4 -5 -5 -5 -5 -5 -5 -5 -5 -6 -6 -7 -8 -8 -9 -10 -11
1 1 0 0 0 0 0 0 0 0 -0 -0 -1 -1 -1 -1 -2 -2 -2 -2 -3 -3 -4 -4 -4 -5 -5 -5 -5 -5 -5 -5 -5 -5 -6 -6 -7 -8 -9 -10 -11 -12
1 1 0 0 -0 -0 -0 -0 -0 -0 -1 -1 -1 -2 -2 -2 -2 -2 -2 -3 -3 -4 -4 -5 -5 -5 -5 -5 -6 -6 -5 -5 -5 -6 -6 -7 -7 -8 -9 -10 -11 -12
1 0 0 0 -0 -1 -1 -1 -1 -1 -1 -1 -2 -2 -2 -2 -3 -3 -3 -3 -4 -4 -5 -5 -5 -5 -5 -5 -6 -6 -6 -5 -6 -6 -6 -7 -7 -8 -9 -10 -12 -13
1 0 0 -0 -1 -1 -1 -1 -1 -1 -2 -2 -2 -2 -2 -3 -3 -3 -4 -4 -4 -4 -4 -5 -6 -6 -6 -6 -6 -6 -6 -6 -6 -6 -6 -7 -8 -9 -9 -11 -12 -13
1 0 -0 -0 -1 -1 -2 -2 -2 -2 -2 -2 -2 -3 -3 -3 -3 -3 -4 -4 -4 -4 -4 -5 -6 -6 -6 -6 -6 -6 -6 -6 -6 -6 -7 -7 -8 -9 -10 -11 -12 -13
2 1 -0 -1 -1 -2 -2 -2 -2 -2 -3 -3 -3 -3 -3 -3 -4 -4 -4 -4 -4 -4 -4 -5 -6 -6 -7 -7 -7 -6 -6 -6 -6 -7 -7 -7 -8 -9 -10 -11 -12 -12
1 1 -0 -1 -1 -2 -2 -2 -3 -3 -3 -3 -3 -4 -4 -4 -4 -4 -4 -5 -5 -5 -5 -5 -6 -7 -7 -7 -7 -7 -6 -6 -6 -7 -7 -7 -8 -9 -10 -11 -11 -12
0 0 -0 -1 -1 -2 -2 -3 -3 -3 -3 -4 -4 -4 -4 -4 -5 -5 -5 -5 -5 -5 -5 -5 -6 -7 -7 -7 -7 -7 -7 -6 -6 -7 -7 -7 -8 -8 -9 -10 -11 -12
-0 -0 -0 -1 -1 -2 -3 -3 -3 -4 -4 -4 -4 -4 -5 -5 -5 -5 -6 -6 -6 -6 -5 -6 -6 -7 -7 -7 -7 -8 -7 -7 -7 -7 -7 -7 -8 -8 -9 -10 -11 -11
-0 -1 -1 -1 -1 -2 -3 -3 -4 -4 -4 -4 -5 -5 -5 -5 -6 -6 -6 -6 -6 -6 -6 -6 -6 -7 -8 -8 -8 -8 -8 -7 -7 -7 -7 -7 -7 -8 -9 -10 -11 -11
-0 -1 -1 -1 -1 -2 -3 -3 -4 -4 -4 -5 -5 -5 -5 -6 -6 -6 -7 -7 -6 -6 -6 -6 -6 -7 -8 -8 -8 -8 -8 -8 -8 -8 -8 -7 -8 -8 -9 -10 -11 -11
-1 -1 -1 -1 -2 -2 -2 -3 -4 -4 -5 -5 -5 -5 -6 -6 -6 -7 -7 -7 -7 -7 -7 -7 -7 -7 -8 -9 -8 -8 -8 -8 -8 -8 -8 -8 -8 -8 -9 -10 -11 -11
-1 -1 -2 -2 -2 -2 -2 -3 -3 -4 -4 -5 -5 -6 -6 -6 -7 -7 -7 -7 -7 -7 -7 -7 -7 -8 -8 -9 -9 -8 -8 -8 -8 -8 -8 -8 -8 -9 -9 -10 -11 -12
-2 -2 -2 -2 -2 -2 -2 -3 -3 -4 -5 -5 -5 -6 -6 -6 -7 -7 -8 -8 -8 -8 -8 -8 -8 -8 -8 -9 -9 -9 -8 -8 -8 -8 -8 -9 -9 -9 -10 -10 -11 -12
-3 -3 -2 -2 -2 -2 -2 -3 -3 -4 -4 -5 -5 -6 -6 -7 -7 -8 -8 -8 -8 -8 -8 -8 -8 -8 -8 -9 -9 -9 -9 -9 -8 -8 -9 -9 -9 -9 -10 -10 -11 -12
-3 -3 -3 -3 -3 -3 -3 -3 -3 -4 -4 -5 -5 -6 -6 -7 -7 -8 -8 -8 -8 -8 -8 -9 -9 -8 -8 -9 -9 -10 -9 -9 -9 -9 -9 -9 -9 -9 -10 -10 -11 -12
-4 -4 -4 -3 -3 -3 -3 -3 -4 -4 -4 -5 -5 -5 -6 -7 -7 -8 -8 -8 -8 -9 -9 -9 -9 -9 -9 -9 -10 -10 -10 -10 -9 -9 -9 -9 -9 -9 -10 -10 -11 -12
-4 -4 -4 -4 -3 -3 -3 -3 -4 -4 -4 -5 -5 -5 -6 -6 -7 -8 -8 -8 -9 -9 -9 -9 -9 -9 -9 -9 -10 -10 -10 -10 -10 -9 -9 -9 -9 -10 -10 -10 -11 -12
-4 -4 -4 -4 -3 -3 -3 -3 -3 -4 -4 -4 -5 -5 -5 -6 -7 -7 -8 -8 -9 -9 -9 -10 -10 -10 -9 -10 -10 -10 -10 -11 -11 -10 -9 -9 -9 -10 -10 -11 -11 -11
-4 -4 -4 -4 -4 -3 -3 -3 -3 -4 -4 -4 -5 -5 -5 -6 -7 -7 -8 -8 -9 -9 -10 -10 -10 -10 -10 -10 -10 -10 -10 -11 -12 -11 -10 -9 -10 -10 -10 -11 -11 -12
-4 -4 -4 -4 -4 -4 -3 -3 -3 -4 -4 -4 -5 -5 -5 -6 -7 -7 -8 -8 -9 -9 -10 -10 -10 -10 -10 -10 -10 -11 -11 -11 -12 -13 -11 -10 -10 -10 -11 -11 -11 -12
-5 -5 -4 -5 -5 -4 -4 -4 -4 -4 -4 -5 -5 -5 -6 -6 -7 -7 -8 -8 -9 -9 -10 -10 -10 -10 -10 -10 -10 -11 -11 -12 -12 -13 -12 -11 -10 -10 -11 -11 -12 -12
-5 -5 -5 -5 -5 -5 -5 -4 -4 -4 -4 -5 -5 -6 -6 -6 -7 -7 -8 -8 -9 -9 -10 -10 -10 -10 -10 -11 -10 -11 -11 -12 -12 -13 -13 -12 -11 -11 -11 -12 -12 -13
-5 -5 -5 -5 -5 -5 -5 -5 -5 -4 -5 -5 -5 -6 -6 -6 -7 -7 -8 -8 -9 -9 -10 -10 -10 -10 -10 -11 -11 -11 -11 -12 -12 -13 -13 -12 -11 -11 -11 -12 -12 -13
-5 -5 -5 -5 -5 -6 -5 -5 -5 -5 -5 -5 -5 -6 -6 -6 -7 -7 -8 -8 -9 -9 -10 -10 -10 -10 -11 -11 -11 -11 -11 -12 -13 -13 -13 -12 -11 -11 -12 -12 -13 -13
Height
1383 1382 1380 1378 1376 1376 1376 1376 1376 1375 1374 1374 1374 1374 1375 1375 1377 1378 1380 1382 1384 1385 1385 1385 1387 1388 1389 1389 1389 1389 1389 1389 1388 1388 1388 1388 1387 1387 1386 1385 1385 1385
1380 1378 1376 1374 1372 1371 1371 1371 1371 1371 1371 1371 1370 1370 1371 1372 1373 1374 1377 1379 1380 1381 1381 1382 1383 1385 1385 1386 1386 1386 1386 1386 1385 1386 1385 1385 1385 1384 1383 1383 1383 1383
1376 1374 1372 1370 1368 1367 1367 1367 1367 1366 1366 1367 1367 1367 1367 1368 1369 1371 1373 1375 1376 1377 1378 1379 1380 1381 1382 1382 1383 1383 1383 1383 1382 1383 1383 1382 1382 1381 1381 1381 1381 1381
1373 1371 1369 1366 1365 1364 1363 1363 1362 1362 1362 1362 1362 1362 1363 1364 1365 1367 1369 1370 1371 1373 1374 1375 1376 1378 1379 1379 1379 1379 1380 1380 1379 1380 1379 1379 1379 1379 1379 1379 1379 1378
1370 1368 1366 1364 1362 1361 1360 1359 1358 1358 1358 1357 1358 1358 1359 1360 1361 1363 1365 1366 1367 1369 1370 1371 1373 1374 1376 1376 1376 1376 1376 1376 1376 1377 1376 1376 1376 1376 1377 1376 1376 1376
1367 1365 1363 1361 1359 1358 1356 1355 1354 1354 1354 1354 1354 1354 1355 1356 1357 1359 1361 1362 1363 1364 1365 1367 1368 1370 1372 1372 1372 1372 1373 1373 1373 1374 1373 1373 1374 1374 1374 1374 1373 1373
1364 1362 1361 1359 1357 1355 1353 1352 1351 1351 1350 1350 1351 1351 1352 1353 1353 1355 1356 1357 1359 1360 1361 1362 1364 1366 1367 1368 1369 1369 1369 1370 1370 1370 1370 1370 1370 1370 1370 1370 1370 1370
1362 1359 1358 1356 1354 1352 1350 1349 1348 1347 1347 1347 1347 1348 1348 1349 1349 1350 1352 1353 1355 1356 1357 1358 1359 1361 1363 1364 1365 1365 1366 1366 1366 1366 1367 1367 1367 1367 1367 1367 1367 1367
1359 1356 1354 1353 1351 1350 1348 1346 1345 1344 1344 1344 1343 1344 1344 1344 1345 1345 1347 1348 1350 1351 1352 1354 1355 1357 1359 1360 1361 1362 1362 1363 1363 1363 1363 1363 1363 1363 1363 1364 1363 1363
1357 1354 1351 1349 1348 1347 1345 1343 1342 1340 1340 1340 1339 1340 1339 1339 1340 1340 1342 1343 1344 1345 1347 1349 1350 1352 1354 1356 1357 1358 1359 1360 1360 1359 1360 1360 1359 1359 1359 1360 1360 1359
1355 1351 1349 1346 1345 1344 1343 1341 1339 1337 1336 1335 1335 1335 1335 1335 1335 1336 1337 1338 1339 1340 1342 1344 1346 1347 1349 1351 1353 1355 1356 1356 1357 1356 1356 1356 1356 1356 1356 1356 1356 1356
1352 1348 1346 1344 1342 1341 1340 1339 1337 1335 1333 1330 1330 1331 1331 1331 1331 1331 1333 1334 1334 1336 1338 1340 1342 1344 1345 1347 1349 1351 1352 1353 1353 1353 1353 1353 1352 1352 1352 1352 1352 1352
1350 1346 1343 1340 1339 1337 1336 1336 1334 1332 1330 1327 1325 1326 1326 1327 1327 1327 1329 1329 1330 1331 1333 1336 1338 1339 1341 1343 1345 1347 1348 1349 1350 1350 1350 1350 1349 1349 1349 1349 1349 1349
1346 1343 1340 1337 1335 1334 1333 1332 1331 1329 1327 1324 1322 1321 1321 1322 1322 1323 1325 1326 1326 1327 1329 1331 1333 1334 1336 1338 1340 1342 1343 1344 1346 1346 1346 1347 1346 1346 1346 1346 1346 1346
1343 1340 1337 1334 1332 1330 1329 1327 1327 1326 1324 1322 1319 1317 1316 1317 1318 1319 1321 1322 1322 1323 1324 1326 1328 1329 1331 1333 1335 1337 1339 1340 1342 1343 1343 1343 1343 1343 1343 1343 1343 1343
1339 1336 1334 1330 1327 1325 1324 1323 1322 1321 1320 1318 1316 1314 1312 1313 1314 1315 1316 1317 1318 1319 1320 1321 1322 1324 1326 1328 1331 1333 1335 1337 1338 1339 1339 1339 1340 1340 1339 1339 1340 1340
1334 1332 1329 1326 1323 1321 1319 1319 1318 1317 1315 1314 1312 1310 1309 1309 1310 1311 1311 1313 1314 1315 1315 1316 1317 1320 1322 1324 1327 1329 1331 1332 1334 1335 1335 1336 1336 1336 1336 1336 1336 1336
1330 1327 1325 1322 1319 1317 1315 1314 1314 1313 1311 1309 1307 1306 1306 1306 1306 1307 1307 1308 1310 1311 1311 1312 1313 1316 1319 1321 1323 1325 1327 1328 1330 1331 1331 1332 1332 1333 1333 1333 1333 1333
1326 1323 1320 1317 1315 1313 1311 1310 1309 1309 1307 1304 1302 1301 1302 1302 1303 1303 1303 1304 1305 1306 1306 1308 1309 1312 1315 1317 1319 1322 1324 1324 1325 1326 1327 1328 1329 1329 1329 1330 1330 1330
1322 1319 1316 1313 1311 1309 1307 1306 1305 1304 1302 1301 1298 1297 1297 1299 1299 1300 1300 1300 1301 1301 1302 1303 1305 1308 1311 1314 1316 1318 1320 1321 1321 1322 1323 1324 1325 1326 1326 1327 1327 1327
1319 1316 1312 1309 1307 1305 1303 1301 1300 1299 1298 1297 1295 1293 1294 1295 1295 1296 1296 1296 1297 1297 1298 1299 1301 1304 1307 1309 1312 1314 1316 1318 1318 1318 1319 1320 1321 1322 1323 1323 1324 1324
1316 1312 1309 1306 1303 1301 1299 1297 1296 1295 1293 1293 1291 1290 1290 1291 1291 1292 1292 1292 1293 1293 1294 1295 1297 1300 1303 1305 1308 1311 1313 1314 1315 1315 1316 1317 1318 1319 1319 1320 1321 1322
1311 1308 1305 1302 1300 1297 1296 1294 1292 1290 1289 1289 1288 1286 1286 1286 1287 1288 1288 1288 1289 1290 1290 1292 1293 1296 1299 1301 1304 1307 1309 1310 1311 1312 1313 1314 1315 1315 1316 1318 1318 1319
1308 1305 1301 1298 1296 1294 1292 1290 1288 1286 1285 1284 1284 1283 1282 1282 1283 1283 1284 1284 1285 1286 1287 1288 1290 1292 1295 1298 1300 1303 1305 1306 1308 1309 1310 1311 1312 1313 1314 1315 1316 1317
1304 1302 1298 1296 1293 1290 1288 1285 1283 1282 1281 1280 1280 1279 1278 1279 1279 1279 1279 1280 1281 1282 1284 1285 1286 1289 1291 1294 1297 1299 1301 1303 1304 1306 1307 1308 1309 1310 1311 1312 1313 1314
1301 1298 1295 1293 1290 1287 1284 1282 1279 1278 1277 1277 1276 1276 1275 1275 1275 1275 1276 1276 1277 1279 1280 1281 1283 1285 1287 1290 1293 1295 1297 1299 1301 1302 1303 1305 1306 1308 1309 1310 1311 1312
Wind_Speed
26 28 31 33 36 38 38 38 38 37 38 38 39 40 40 41 42 42 40 36 33 31 28 28 31 32 30 27 26 24 23 22 22 23 24 24 24 23 23 24 23 24
24 26 27 29 31 34 35 36 36 36 36 37 37 38 39 40 41 41 39 36 35 33 28 28 31 32 31 28 26 25 24 23 22 23 24 24 24 24 23 24 24 24
23 24 24 25 26 28 30 32 33 34 35 35 36 37 38 39 40 40 38 37 37 34 29 28 30 32 32 29 26 26 24 23 22 23 24 25 24 24 24 24 24 25
22 23 23 22 22 24 26 29 32 33 33 34 35 36 38 39 40 40 39 38 38 35 30 28 30 32 32 29 27 26 25 24 23 23 25 25 25 24 24 25 25 25
24 23 23 21 20 21 24 27 29 30 32 33 34 36 37 39 41 41 40 40 39 36 32 29 30 32 33 31 28 27 26 25 24 24 25 26 25 24 24 25 25 25
28 25 24 22 20 20 23 25 26 28 30 31 33 35 36 39 41 41 41 42 40 37 33 30 30 32 33 32 30 28 27 26 25 24 25 26 25 25 24 25 26 26
31 28 26 24 22 21 22 24 25 27 28 30 32 34 36 37 39 40 42 42 41 39 35 31 29 31 34 34 31 30 28 27 26 25 25 26 25 25 25 25 25 26
32 31 28 25 24 22 22 23 24 26 28 29 31 33 34 36 37 39 41 41 41 39 35 31 29 30 33 35 33 31 29 28 27 26 25 25 25 25 24 24 25 25
33 31 29 27 25 24 22 21 22 24 26 29 30 32 33 34 36 37 39 40 41 40 36 32 30 31 33 35 35 33 31 29 27 26 25 25 25 25 24 23 25 25
34 32 31 29 27 25 24 21 21 22 25 27 29 31 32 34 35 37 38 40 40 40 37 33 32 32 33 35 35 34 32 30 27 26 25 25 25 24 24 24 24 25
34 32 32 31 29 27 25 23 21 21 23 25 28 29 31 33 35 36 37 39 40 40 38 35 32 32 33 34 35 35 33 30 28 26 24 24 25 24 24 24 24 25
33 31 31 31 30 28 26 25 24 22 22 24 25 27 30 32 34 35 36 38 40 40 39 36 33 33 34 34 35 34 32 30 28 26 25 25 25 25 25 24 24 24
32 30 30 30 30 28 27 26 26 24 23 23 24 25 28 31 33 35 35 37 39 40 39 37 33 33 34 35 35 34 31 30 28 27 26 26 26 26 25 25 24 23
33 31 29 28 29 29 27 27 26 25 24 23 23 24 26 29 32 33 34 35 38 39 39 37 34 34 35 36 36 34 32 30 28 27 26 26 27 27 26 25 25 24
35 33 30 27 27 27 27 26 26 25 24 23 24 24 25 28 31 33 34 35 37 38 38 37 36 35 34 35 36 35 32 30 28 27 27 27 27 27 27 26 25 24
36 34 31 28 26 26 27 26 25 24 24 23 24 23 24 26 29 32 34 35 35 37 38 38 38 36 34 34 35 34 32 30 27 26 26 27 28 27 27 27 26 25
38 36 33 30 26 25 25 25 24 24 23 23 23 23 24 26 29 31 33 34 34 35 37 39 38 36 34 33 34 33 32 30 27 27 27 27 28 28 27 27 27 25
39 37 35 31 26 23 24 24 24 24 23 22 21 22 23 25 28 31 32 33 33 35 37 38 38 37 34 32 32 32 32 31 28 27 27 28 28 27 27 28 27 26
38 37 35 31 26 23 23 24 24 24 24 22 20 20 23 26 27 30 31 32 32 34 36 37 38 37 33 31 32 32 31 31 29 28 27 27 27 27 28 27 26 25
37 37 36 32 27 24 24 24 24 23 23 22 20 19 22 25 27 28 30 31 31 32 34 35 37 36 32 31 32 31 30 29 29 29 27 25 26 27 27 26 25 24
36 36 36 33 29 26 26 26 24 23 23 22 21 19 21 24 27 28 29 30 30 31 32 34 35 34 32 31 31 30 29 27 28 29 27 25 26 27 26 25 24 23
36 35 35 33 31 28 27 26 25 24 22 21 21 20 20 24 26 27 28 28 28 29 31 32 32 32 31 30 30 29 28 27 27 29 29 27 26 26 26 24 22 22
36 35 35 35 34 31 29 27 25 24 22 20 20 21 21 23 25 25 25 26 27 28 29 29 29 29 30 30 29 28 27 27 28 29 30 28 26 26 25 24 23 22
36 35 36 36 36 35 32 29 26 24 22 20 20 21 20 21 23 24 24 25 25 26 26 27 26 26 28 29 28 26 27 28 28 29 30 29 27 26 26 24 23 22
35 35 35 35 36 35 32 29 27 24 22 21 20 21 20 21 23 24 24 24 23 23 23 25 26 26 26 27 26 26 26 27 28 30 30 29 28 26 25 24 23 22
34 33 33 33 34 34 31 28 25 23 22 22 22 21 21 22 23 24 24 23 22 21 21 23 25 25 25 25 25 26 26 26 28 30 29 28 27 25 23 22 21 21
Wind_Direction
304 298 293 289 283 279 276 275 275 274 272 270 269 269 268 266 262 258 255 251 254 264 266 257 252 250 248 247 250 254 260 265 270 273 271 268 265 262 260 259 257 256
310 304 297 291 285 280 276 276 276 275 273 271 270 270 267 263 260 257 255 252 256 264 263 255 252 250 247 248 251 254 259 265 269 272 272 270 267 263 261 260 257 257
316 313 305 296 288 283 280 278 277 275 274 272 269 267 264 261 259 256 254 253 257 263 261 254 251 250 248 248 252 255 259 264 268 272 273 270 267 262 261 259 256 256
321 320 316 306 295 288 282 277 275 273 273 271 268 266 264 261 258 255 253 253 257 263 261 254 252 252 250 249 252 255 259 264 267 271 271 269 266 262 259 257 254 255
328 325 323 316 304 294 283 277 275 273 272 270 268 266 264 262 260 257 256 256 258 262 261 255 253 253 251 250 252 255 258 263 266 268 270 269 265 261 258 255 254 255
335 330 327 323 314 300 288 282 278 274 272 270 268 267 265 264 262 260 259 258 259 261 260 256 253 253 251 250 252 255 257 262 264 266 268 268 265 260 257 255 254 257
337 335 330 325 320 308 296 288 282 277 274 271 268 267 265 264 263 262 260 260 260 261 260 257 253 252 251 251 252 254 257 260 262 263 266 267 264 259 256 255 255 258
338 337 332 325 321 314 304 295 287 281 277 272 269 268 267 266 265 263 261 260 260 260 259 256 252 250 250 251 253 254 255 259 260 261 265 266 265 260 257 256 256 259
337 336 333 326 320 316 310 303 294 287 280 275 272 270 269 268 266 264 262 261 260 259 258 255 251 248 248 251 253 253 254 257 259 261 264 266 266 263 260 258 257 259
334 335 333 329 322 315 312 308 301 293 284 278 275 272 270 269 267 265 262 260 259 258 256 254 250 246 247 249 252 253 254 257 260 262 264 267 268 265 261 258 258 259
330 332 332 330 325 316 311 308 302 296 289 282 277 274 273 271 268 265 262 260 259 257 256 255 252 247 246 248 251 253 254 257 260 262 265 268 269 266 262 258 258 259
326 329 329 328 326 319 311 306 300 296 291 286 281 277 274 272 270 266 264 261 261 259 256 255 254 249 247 248 250 252 255 257 259 262 266 269 269 267 263 259 259 260
322 324 325 325 324 321 313 306 301 297 292 288 286 280 274 272 270 268 266 263 263 261 256 255 254 250 247 248 247 249 252 255 259 262 265 268 269 268 265 261 260 260
318 320 321 321 321 319 314 309 304 300 296 291 287 283 278 274 271 269 267 264 263 262 258 256 254 249 245 245 245 246 249 252 258 263 265 267 268 268 266 263 262 262
316 316 316 316 317 317 315 311 308 304 299 293 288 286 283 278 273 269 266 263 264 264 260 255 253 250 245 243 244 245 248 252 257 262 265 266 267 268 268 266 263 264
314 315 314 313 314 316 315 312 310 307 303 297 292 289 286 281 274 269 265 263 264 264 261 256 253 251 246 243 243 244 248 252 257 261 263 264 266 267 268 268 266 265
315 315 314 312 312 314 314 312 308 305 302 301 297 292 288 283 276 271 267 266 265 263 262 258 254 251 247 243 242 244 247 251 255 260 262 262 264 267 268 269 269 268
317 317 315 312 311 312 312 309 304 300 300 301 301 298 292 284 277 273 270 268 266 262 260 259 256 253 248 243 241 243 247 251 253 255 259 260 263 266 268 269 269 270
317 316 315 313 310 309 309 306 300 298 300 302 303 301 292 284 278 274 271 269 267 263 261 260 257 253 248 243 241 241 245 251 253 253 255 258 261 265 267 268 269 270
318 317 315 313 311 308 306 304 299 300 304 302 300 298 291 285 279 275 273 271 269 266 263 261 257 254 249 243 241 240 241 246 252 255 257 258 260 264 265 267 269 271
318 319 317 315 315 312 308 305 301 301 305 303 298 294 291 286 280 275 274 272 270 268 263 260 259 256 250 245 241 240 241 241 244 250 256 259 260 264 267 268 270 273
320 320 318 316 315 312 307 305 303 301 303 302 295 290 287 282 278 275 275 273 271 267 262 259 260 257 252 247 242 239 240 239 237 241 250 257 261 265 269 270 273 275
323 322 320 317 314 310 304 303 302 299 300 299 292 286 282 280 278 277 277 275 271 267 262 260 260 258 253 248 243 238 237 236 234 236 244 253 260 264 269 272 273 277
326 324 321 319 316 312 306 303 302 298 296 295 291 285 281 280 278 276 275 274 271 268 265 262 260 259 254 249 244 238 235 234 233 235 240 249 257 262 267 271 273 276
326 324 322 319 317 314 309 306 304 300 294 292 289 286 282 279 276 273 271 272 272 269 266 261 259 257 254 250 244 237 234 232 232 234 239 247 254 259 264 268 271 273
325 322 321 320 317 315 310 305 302 299 293 291 289 286 280 275 273 271 270 272 272 269 264 259 256 255 252 249 244 236 231 229 230 234 239 246 254 259 262 267 270 272